Location: Elk Forest
(39.5314°N, 75.8738°W)
Time: 07:05:19
(UTC-04:00)

Daily predictions for brighter satellites

Satellite Brightness Start Highest point End
(mag) Time Altitude Azimuth Time Altitude Azimuth Time Altitude Azimuth
Cosmos 1624 Rocket 4.1 18:37:44 10° NNW 18:42:58 85° WSW 18:48:13 10° SSE
Cosmos 2366 rocket 4.0 18:38:30 10° S 18:44:40 70° E 18:50:49 10° NNE
Cosmos 1626 2.3 18:41:25 10° N 18:45:05 49° E 18:48:41 10° SSE
SL-14 R/B 4.1 18:41:25 10° NNW 18:45:12 56° W 18:48:58 10° S
CZ-2C R/B 3.7 18:41:25 10° NNE 18:45:58 88° W 18:50:24 10° SSW
ALOS 3.2 18:43:04 10° SE 18:46:54 26° ENE 18:50:46 10° NNE
IRS-1A Rocket 4.4 18:42:53 10° SSE 18:48:44 84° ENE 18:54:41 10° NNW
Cosmos 2360 Rocket 2.3 18:47:00 10° NNW 18:52:33 54° ENE 18:58:05 10° SE
APEX 4.2 18:51:03 10° SSE 18:53:28 19° ESE 18:55:39 10° ENE
COSMOS 2428 3.7 18:50:54 10° N 18:55:40 27° NE 19:00:23 10° ESE
SL-8 Rocket 4.4 18:51:51 10° SSW 18:57:59 68° W 19:04:13 10° N
Cosmos 2333 Rocket 3.8 18:55:04 10° NNE 18:58:32 16° NE 19:01:35 11° E
Cosmos 1833 4.2 18:54:20 10° SSW 19:00:02 82° ESE 19:05:42 10° NNE
Cosmos 2322 Rocket 3.2 18:55:11 10° NNW 19:00:38 52° WSW 19:06:03 10° S
MONITOR-E 4.3 18:57:43 10° SSE 19:00:41 50° ENE 19:03:41 10° N
BREEZE-M DEB (TANK) 4.1 18:57:05 10° NW 19:01:09 54° NNE 19:16:32 10° ESE
COSMO-SKYMED 1 2.6 18:57:08 10° NNE 19:01:28 64° ESE 19:05:45 10° S
Cosmos 2219 4.1 18:58:08 10° SSE 19:02:56 28° ESE 19:07:45 10° NE
Abrixas 3.7 19:07:30 10° S 19:08:53 15° SE 19:09:11 15° SE
Abrixas rocket 4.3 19:10:08 10° NW 19:12:33 19° N 19:14:57 10° NE
Cosmos 1805 Rocket 4.4 19:12:01 10° NNE 19:15:47 27° ENE 19:19:33 10° SE
FENGYUN 3A 3.8 19:11:47 10° SSE 19:17:00 53° ENE 19:22:16 10° N
Cosmos 1315 Rocket 2.8 19:13:51 10° N 19:17:54 60° E 19:21:57 10° SSE
Cosmos 44 3.3 19:15:12 10° S 19:19:23 45° ESE 19:23:07 12° NE
Meteor 2-1 Rocket 4.3 19:15:25 10° S 19:21:12 88° WNW 19:27:08 10° N
EO 1 Del DPAF 4.0 19:17:31 10° N 19:21:17 54° WNW 19:25:01 10° SSW
Cosmos 1821 Rocket 4.3 19:15:41 10° SSE 19:21:25 43° E 19:27:16 10° NNE
YAOGAN 1 3.7 19:19:30 10° S 19:23:41 48° W 19:27:53 10° NNW
Cosmos 2322 3.7 19:19:36 10° NNW 19:25:22 80° ENE 19:31:04 10° SSE
USA 267 4.0 19:25:18 17° ENE 19:29:20 31° SE 19:35:00 10° S
Cosmos 1269 Rocket 4.1 19:26:33 10° S 19:31:37 52° ESE 19:36:45 10° NNE
Cosmos 2151 3.7 19:27:52 10° NNW 19:32:04 56° W 19:36:13 10° S
Cosmos 1633 Rocket 4.3 19:28:38 10° NNE 19:31:28 21° ENE 19:31:28 21° ENE
SPOT 3 Rocket 3.8 19:28:29 10° S 19:33:39 74° WSW 19:38:53 10° NNW
DMSP B5D1-3 4.4 19:29:10 10° NNE 19:34:20 83° ESE 19:39:29 10° SSW
ASTRO E2 4.4 19:36:32 10° WSW 19:39:47 24° S 19:41:35 17° SSE
SJ-6B 3.5 19:40:35 31° ENE 19:40:35 31° ENE 19:43:31 10° N
Aureole 2 4.4 19:37:24 10° NNW 19:40:30 74° WSW 19:44:00 10° SSE
RESURS DK-1 3.1 19:36:45 10° NW 19:40:46 53° WSW 19:44:46 10° S
Cosmos 2219 Rocket 2.7 19:36:00 10° N 19:41:10 37° ENE 19:43:16 27° ESE
FREGAT/IRIS 3.3 19:42:27 36° NNE 19:42:27 36° NNE 19:44:36 10° N
Cosmos 44 Rocket 3.1 19:38:13 10° SSW 19:42:55 79° ESE 19:46:44 16° NE
Meteor 2-10 4.2 19:41:27 10° SSE 19:46:08 41° E 19:50:55 10° NNE
Cosmos 1726 1.9 19:44:29 10° S 19:48:09 67° E 19:51:50 10° NNE
Cosmos 1452 Rocket 4.1 19:43:29 10° NNW 19:48:39 58° WSW 19:53:47 10° S
Cosmos 2098 Rocket 3.2 19:44:30 10° S 19:48:46 77° E 19:54:18 10° N
Cosmos 2123 Rocket 4.2 19:45:46 10° N 19:51:45 47° ENE 19:57:45 10° SSE
Atlas Centaur 2 3.5 19:48:07 10° WSW 19:52:02 25° S 19:54:54 17° SSE
BREEZE-M DEB (TANK) 3.5 19:52:40 10° W 19:54:11 18° SW 19:54:38 17° SSW
Cosmos 1605 Rocket 4.2 19:50:04 10° SSE 19:55:42 41° E 20:01:21 10° NNE
Delta 2 Rocket 3.5 19:52:18 10° WSW 19:55:50 43° S 19:56:09 42° SSE
Gbstr 26 Del rocket 3.9 19:51:16 10° NW 19:56:17 51° NNE 19:58:17 37° E
Aureole 2 Rocket 3.1 19:54:58 10° N 19:58:13 45° NE 19:58:13 45° NE
Cosmos 2221 3.3 19:54:46 10° SSW 19:58:58 53° W 20:03:14 10° N
Cosmos 2333 4.1 19:55:20 10° NNW 20:01:05 83° ENE 20:05:29 18° SSE
CZ-4C R/B 2.0 19:59:13 10° SSW 20:04:21 89° NW 20:08:29 20° NNE
Cosmos 1110 Rocket 4.3 20:02:51 10° N 20:07:45 44° ENE 20:07:45 44° ENE
H-2A R/B 2.8 20:07:32 33° S 20:09:11 80° WSW 20:13:07 10° NNW
Iridium 4 Rocket 4.3 20:05:49 10° SSW 20:11:12 58° W 20:16:59 10° N
BREEZE-M R/B 4.4 20:09:58 10° SSW 20:10:42 17° SSW 20:10:42 17° SSW
Cosmos 2237 Rocket 2.9 20:08:37 10° N 20:13:11 36° NE 20:13:11 36° NE
In-Cosmos 22 Rocket 4.2 20:08:14 10° N 20:13:54 60° ENE 20:15:17 47° SE
DELTA 2 R/B (1) 3.9 20:12:21 10° W 20:17:48 56° SSW 20:19:09 44° SSE
Cosmos 2227 Rocket 3.4 20:14:52 10° S 20:17:28 26° SSE 20:17:28 26° SSE
Resurs 01 Rocket 3.5 20:23:46 20° N 20:23:46 20° N 20:25:12 10° N
SL-16 R/B 4.1 20:19:57 10° N 20:21:48 16° NNE 20:21:48 16° NNE
ALOS 4.1 20:20:08 10° SSW 20:24:13 30° W 20:28:19 10° NW
Cosmos 1300 4.5 20:29:33 10° SSW 20:31:27 26° SW 20:31:27 26° SW
Envisat 4.1 20:35:33 31° N 20:35:33 31° N 20:38:18 10° N
Cosmos 1980 4.1 20:31:58 10° NNW 20:36:25 50° NNE 20:36:25 50° NNE
Meteor 2-2 Rocket 4.1 20:31:52 10° S 20:37:36 86° W 20:43:17 10° N
NOSS 0 Rocket 3.7 20:31:28 10° NNW 20:37:40 79° ENE 20:37:56 77° E
COSMOS 2428 3.7 20:34:43 10° NW 20:40:05 44° WSW 20:44:03 17° S
Cosmos 2333 Rocket 2.1 20:37:45 10° NNW 20:43:32 83° WSW 20:43:38 82° SW
Sich 1 4.1 20:40:12 10° NNW 20:44:22 44° W 20:44:35 44° WSW
Cosmos 2219 4.4 20:41:30 10° SW 20:46:52 40° WNW 20:52:16 10° N
BREEZE-M DEB (TANK) 4.0 20:46:29 10° WNW 20:52:04 38° NNW 20:52:04 38° NNW
Cosmos 2297 Rocket 4.4 20:52:17 10° SSW 20:52:50 13° SSW 20:52:50 13° SSW
Centaur D AC-29 3.7 20:56:44 10° WSW 20:59:12 15° SSW 20:59:12 15° SSW
USA 267 3.4 21:12:42 70° NW 21:12:42 70° NW 21:19:04 10° WSW
Cosmos 2219 Rocket 3.8 21:20:10 10° NW 21:24:57 30° WSW 21:25:02 30° WSW
Cosmos 2237 Rocket 4.4 21:52:53 10° NW 21:55:03 20° WNW 21:55:03 20° WNW
